Weather in Bogdashkino

Russia / Ulyanovsk Oblast     54°23′14″N   49°04′45″E
temp.,
°C
wind,
m/s
gust,
m/s
humid.,
%
clouds,
%
prec.,
mm/h
press.,
hPa
HPBL,
m
16 may, sun
sun1601:00+18s513575 0.0 1017173
04:00+18sse6145437 0.0 1017206
07:00+18sse611625 0.0 1017192
10:00+23s694931 0.0 1017421
13:00+27s7113858 0.0 10171710
16:00+27ssw683858 0.0 10171795
19:00+23s4756100 0.0 1016136
22:00+19ssw335297 0.0 101726
17 may, mon
mon1701:00+18s225656 0.0 101713
04:00+16s346097 0.0 101741
07:00+19ssw12637 0.0 101877
10:00+24ssw24506 0.0 1018345
13:00+26sw354344 0.0 1018855
16:00+27wsw453953 0.0 10181289
19:00+26sse225095 0.0 101719
22:00+21ssw2351100 0.0 101816
18 may, tue
tue1801:00+19sse3353100 0.0 101825
04:00+18s2258100 0.0 101817
07:00+20se2360100 0.0 101861
10:00+24se234899 0.0 1018393
13:00+27s3435100 0.0 10181091
16:00+28sse2229100 0.0 10171101
19:00+25ene224196 0.0 101614
22:00+20e444365 0.0 101745
19 may, wed
wed1901:00+18ese6146665 0.0 1017274
04:00+17se497382 0.0 1017166
07:00+19ese5126816 0.0 1017291
10:00+24se58535 0.0 1017501
13:00+27se6745100 0.0 10161553
16:00+28se59415 0.0 10152676
19:00+19e101582100 0.2 1015292
22:00+18e81670100 0.4 1015275
20 may, thu
thu2001:00+20se8166716 0.0 1015431
04:00+18se61566100 0.0 1015348
07:00+18se816715 0.0 1014404
10:00+23sse10165846 0.0 1014867
13:00+26s101555100 0.0 10141637
16:00+24ssw71258100 0.0 1014867
19:00+17w51091100 2.2 1017387
22:00+14w2291100 2.4 101928